Find OneWeb SL0548

NORAD ID: 56050 Int'l Des: 2023-043 Owner: ONEWEBN Country: UK Constellation: oneweb operational
別名: ONEWEB-0548 spacetrack, celestrak
LEOCIRCULARPOLARONEWEB_TYPE

現在のビュー

3D地球を読み込み中...

About OneWeb SL0548

OneWeb SL0548 (NORAD 56050) is a oneweb constellation satellite launched Mar 26, 2023 by ONEWEBN of UK. It operates in LEO, CIRCULAR, POLAR, ONEWEB_TYPE orbit with a mass of 148.00 kg.

次回通過

Passes for default location (London). Set your location on the main map for personalized predictions.

高度履歴

Loading altitude history...

軌道要素

1 56050U 23043E 26263.12033176 -.00000041 00000-0 -14100-3 0 9996
2 56050 87.9153 209.9213 0002446 80.5360 279.6048 13.16593685171456
Epoch: Sep 20, 2026 • Age: 13 hours

現在のステータス

高度 1209.4 km
遠地点 / 近地点 N/A
速度 7.25 km/s
衛星直下点 -29.59°S, 23.49°W
打ち上げ日 Mar 26, 2023
運用期間 3.4 years
タイプ internet

技術仕様

分類 Payload
質量 148.00 kg
乾燥質量 140.00 kg
長さ 1.30 m
直径 1.00 m
スパン 5.00 m
形状 ? Trapezoid+2 pan
製造者 ONEWUS
バスタイプ ARROW
フェーズステータス In Orbit
所有者/国 ONEWEBN/UK

Most Searched